[[{"header":{"parameterUnit":"m.s-1","parameterCategory":1,"la1":30.2991,"la2":30.254,"lo1":-89.0895,"lo2":-89.0444,"dy":0.0017,"dx":0.0017,"nx":28,"ny":28,"refTime":"2024-03-12T21:00:00:Z","depth":0,"parameterNumber":2,"parameterNumberName":"U-component_of_WINDS"},"data":[0,0,0,0,0,0,0,0,0,0,0,0,0,0,0,0,0,0,0,0,0,0,0,0,0,0,0,0,0,0,0,0,0,0,0,0,0,0,0,0,0,0,0,0,0,0,0,0,0,0,0,0,0,0,0,0,0,0,-1.8518,-1.8518,0,-1.8545,-1.8545,-1.8546,-1.8452,-1.8449,-1.8447,-1.8444,-1.8476,-1.848,-1.8483,0,0,0,0,0,0,0,0,0,0,0,0,0,-1.8389,-1.8392,-1.8518,-1.8518,-1.8518,-1.8545,-1.8545,-1.8546,-1.8453,-1.8449,-1.8446,-1.8443,-1.8475,-1.8479,-1.8483,0,0,0,0,0,0,0,0,0,0,0,0,0,-1.8434,-1.8393,-1.8518,-1.8475,-1.8472,-1.8545,-1.8545,-1.8546,-1.8454,-1.8449,-1.8445,-1.8441,-1.8474,-1.8479,-1.8484,-1.8601,0,0,-1.85,-1.8502,0,0,0,0,0,0,0,0,-1.8431,-1.8439,-1.8481,-1.8478,-1.8474,-1.8491,-1.8512,-1.8564,-1.8455,-1.8461,-1.8444,-1.8439,-1.8485,-1.8489,-1.8503,-1.8602,-1.8604,-1.85,-1.8504,-1.8506,-1.8507,0,0,0,0,0,0,0,-1.8428,-1.8437,-1.8529,-1.8482,-1.8478,-1.8456,-1.8458,-1.8521,-1.8496,-1.846,-1.8453,-1.8457,-1.8482,-1.8499,-1.8503,-1.8604,-1.85,-1.8505,-1.8508,-1.851,-1.8801,-1.8806,0,0,0,0,0,0,-1.843,-1.8435,-1.8528,-1.8529,-1.8442,-1.8462,-1.8464,-1.849,-1.8495,-1.8492,-1.8461,-1.8453,-1.8492,-1.8497,-1.8504,-1.8642,-1.8506,-1.8511,-1.8514,-1.8797,-1.8802,-1.8807,0,0,0,0,0,0,-1.8428,-1.8439,-1.8527,-1.848,-1.849,-1.8468,-1.8499,-1.8493,-1.8509,-1.8496,-1.8491,-1.8482,-1.8489,-1.8497,-1.8577,-1.8642,-1.8513,-1.8518,-1.8791,-1.8798,-1.8805,-1.8918,0,0,0,0,0,0,-1.8425,-1.8439,-1.8482,-1.8482,-1.8493,-1.8599,-1.8503,-1.8496,-1.8518,-1.8507,-1.8515,-1.8512,-1.8486,-1.857,-1.8583,-1.8647,-1.8522,-1.8785,-1.8795,-1.8803,-1.8909,-1.8928,-1.8945,0,0,0,0,0,-1.842,-1.8514,-1.8485,-1.8497,-1.8546,-1.8602,-1.8608,-1.8576,-1.8523,-1.8567,-1.8559,-1.8512,-1.8633,-1.8579,-1.8592,-1.8659,-1.8781,-1.8792,-1.8802,-1.8901,-1.8925,-1.8945,0,0,0,0,0,0,-1.8524,-1.8513,-1.8481,-1.8577,-1.8591,-1.8586,-1.8641,-1.8602,-1.8632,-1.8622,-1.8581,-1.8583,-1.8671,-1.8673,-1.8614,-1.8773,-1.8698,-1.8712,-1.8769,-1.8791,-1.8809,-1.8807,-1.8526,0,0,0,0,0,-1.8558,-1.8603,-1.8592,-1.8678,-1.8686,-1.8663,-1.8686,-1.8659,-1.8673,-1.8679,-1.8676,-1.8693,-1.8734,-1.8762,-1.88,-1.8908,-1.8909,-1.8961,-1.8979,-1.8994,-1.9006,-1.9065,-1.9088,-1.8841,-1.8841,-1.8841,0,0,-1.8629,-1.8628,-1.866,-1.8698,-1.8706,-1.8756,-1.8668,-1.8724,-1.8761,-1.8688,-1.8763,-1.8762,-1.8778,-1.8873,-1.8915,-1.8877,-1.9075,-1.9007,-1.9019,-1.9023,-1.9078,-1.9101,-1.9122,-1.8848,-1.8847,-1.8846,0,0,-1.8783,-1.8786,-1.8859,-1.8868,-1.8881,-1.8864,-1.8882,-1.8883,-1.8879,-1.8954,-1.8901,-1.8944,-1.9017,-1.903,-1.9046,-1.9206,-1.9164,-1.9219,-1.9315,-1.9372,-1.9391,-1.9408,-1.9467,-1.9488,-1.9232,-1.9232,-1.9232,0,-1.8869,-1.894,-1.8901,-1.8961,-1.898,-1.8915,-1.8988,-1.9,-1.9025,-1.904,-1.8997,-1.9087,-1.9093,-1.919,-1.9229,-1.9244,-1.9264,-1.9219,-1.9391,-1.9408,-1.9424,-1.9479,-1.95,-1.9239,-1.9238,-1.9237,-1.9237,0,-1.9047,-1.9097,-1.9154,-1.9178,-1.9204,-1.927,-1.9243,-1.9274,-1.9245,-1.9234,-1.9312,-1.9316,-1.9354,-1.9375,-1.9348,-1.947,-1.9446,-1.9398,-1.9322,-1.9454,-1.9505,-1.9526,-1.9248,-1.9246,-1.9244,-1.9242,0,0,-1.9267,-1.9269,-1.9291,-1.9301,-1.931,-1.9349,-1.9413,-1.9448,-1.9476,-1.9496,-1.955,-1.9612,-1.9568,-1.9587,-1.9561,-1.9611,-1.9738,-1.9557,-1.9556,-1.9591,-1.9874,-1.9911,-1.9936,-1.971,-1.9714,-1.9717,-1.9873,0,-1.9419,-1.9527,-1.9494,-1.9604,-1.965,-1.9589,-1.9645,-1.9658,-1.9649,-1.9688,-1.9679,-1.9725,-1.9662,-1.9673,-1.972,-1.9713,-1.9795,-1.9701,-1.9761,-1.9764,-1.976,-1.9962,-2.0001,-2.0148,-1.9893,-1.9896,-1.9898,0,-1.9611,-1.9637,-1.9751,-1.9753,-1.9771,-1.9822,-1.9852,-1.989,-1.9903,-1.9894,-1.9915,-1.9878,-1.9943,-1.9866,-1.9955,-1.9892,-1.9915,-1.9915,-1.992,-1.9925,-1.984,-1.9974,-2.0194,-2.0217,-1.9929,-1.9927,-1.9925,0,-1.9762,-1.9825,-1.9902,-1.9913,-1.9916,-1.9954,-1.9957,-1.9966,-1.999,-2.0017,-2.0032,-2.0067,-2.0086,-2.0115,-2.0089,-2.0036,-2.0183,-2.0104,-2.0178,-2.0179,-2.0213,-2.0211,-2.0441,-2.0226,-2.0226,-2.0225,-2.0225,0,-1.9936,-2.0008,-1.997,-2.0017,-2.0097,-2.0059,-2.0139,-2.0136,-2.0145,-2.0191,-2.0141,-2.0186,-2.0149,-2.0192,-2.0172,-2.025,-2.0259,-2.0254,-2.0248,-2.0259,-2.026,-2.0274,-2.0263,-2.0231,-2.023,-2.0229,-2.0228,0,-2.0118,-2.0095,-2.0174,-2.0171,-2.0172,-2.0231,-2.0229,-2.0273,-2.0261,-2.032,-2.0332,-2.0314,-2.0361,-2.0338,-2.0388,-2.0375,-2.0475,-2.0455,-2.047,-2.0465,-2.0541,-2.0534,-2.0788,-2.082,-2.0584,-2.0587,-2.0589,0,-2.023,-2.0285,-2.0287,-2.0314,-2.0321,-2.0365,-2.0389,-2.0354,-2.0381,-2.0401,-2.0443,-2.0486,-2.0518,-2.0597,-2.0588,-2.0626,-2.0607,-2.0694,-2.0613,-2.0622,-2.061,-2.0607,-2.0613,-2.0711,-2.0713,-2.0715,-2.0717,0,-2.0434,-2.0419,-2.0455,-2.0487,-2.0516,-2.054,-2.056,-2.0585,-2.0551,-2.0584,-2.0631,-2.0656,-2.0706,-2.075,-2.0783,-2.0788,-2.0748,-2.0743,-2.0762,-2.0774,-2.0781,-2.0779,-2.0515,-2.0737,-2.0735,-2.0734,-2.0733,-2.0732,-2.0585,-2.063,-2.0639,-2.0681,-2.0692,-2.0711,-2.0753,-2.0745,-2.0783,-2.0821,-2.0798,-2.0854,-2.0867,-2.0907,-2.0918,-2.0962,-2.0928,-2.0955,-2.0963,-2.097,-2.0981,-2.0773,-2.0968,-2.0967,-2.0966,-2.0966,-2.0965,0,-2.0786,-2.0789,-2.0827,-2.0856,-2.0889,-2.0846,-2.0866,-2.0897,-2.0946,-2.0961,-2.0993,-2.1048,-2.109,-2.1085,-2.1124,-2.116,-2.1143,-2.1172,-2.1169,-2.1171,-2.1009,-2.0988,-2.1185,-2.1185,-2.1185,-2.1185,-2.1185,-2.1185,-2.0894,-2.0969,-2.0957,-2.1037,-2.1039,-2.1093,-2.1108,-2.1126,-2.1138,-2.1201,-2.1235,-2.1231,-2.1238,-2.1277,-2.1314,-2.1312,-2.1329,-2.1365,-2.1356,-2.1204,-2.1183,-2.1162,-2.1143,-2.1369,-2.1369,-2.1515,-2.1517,-2.1518]},{"header":{"parameterUnit":"m.s-1","parameterCategory":1,"la1":30.2991,"la2":30.254,"lo1":-89.0895,"lo2":-89.0444,"dy":0.0017,"dx":0.0017,"nx":28,"ny":28,"refTime":"2024-03-12T21:00:00:Z","depth":0,"parameterNumber":3,"parameterNumberName":"V-component_of_WINDS"},"data":[0,0,0,0,0,0,0,0,0,0,0,0,0,0,0,0,0,0,0,0,0,0,0,0,0,0,0,0,0,0,0,0,0,0,0,0,0,0,0,0,0,0,0,0,0,0,0,0,0,0,0,0,0,0,0,0,0,0,-0.9174,-0.9174,0,-0.9179,-0.9179,-0.9179,-0.9148,-0.9148,-0.9147,-0.9146,-0.9151,-0.9152,-0.9153,0,0,0,0,0,0,0,0,0,0,0,0,0,-0.9136,-0.9136,-0.9174,-0.9174,-0.9174,-0.9179,-0.9179,-0.9179,-0.9149,-0.9148,-0.9146,-0.9145,-0.915,-0.9152,-0.9153,0,0,0,0,0,0,0,0,0,0,0,0,0,-0.9148,-0.9137,-0.9174,-0.9159,-0.9158,-0.9179,-0.9179,-0.9179,-0.9149,-0.9147,-0.9146,-0.9145,-0.915,-0.9151,-0.9153,-0.9188,0,0,-0.9157,-0.9158,0,0,0,0,0,0,0,0,-0.9147,-0.9149,-0.9161,-0.916,-0.9159,-0.9162,-0.9168,-0.9182,-0.9149,-0.9152,-0.9146,-0.9144,-0.9155,-0.9156,-0.916,-0.9188,-0.9189,-0.9157,-0.9158,-0.9159,-0.9159,0,0,0,0,0,0,0,-0.9146,-0.9149,-0.9176,-0.9162,-0.916,-0.9152,-0.9152,-0.917,-0.9161,-0.9152,-0.915,-0.9151,-0.9155,-0.9159,-0.916,-0.9189,-0.9157,-0.9159,-0.9159,-0.916,-0.9246,-0.9247,0,0,0,0,0,0,-0.9148,-0.9148,-0.9176,-0.9176,-0.915,-0.9154,-0.9154,-0.9162,-0.9161,-0.9159,-0.9152,-0.9149,-0.9157,-0.9159,-0.916,-0.9201,-0.9159,-0.916,-0.9161,-0.9244,-0.9246,-0.9247,0,0,0,0,0,0,-0.9147,-0.915,-0.9176,-0.9162,-0.9164,-0.9156,-0.9165,-0.9163,-0.9167,-0.9161,-0.9159,-0.9158,-0.9156,-0.9158,-0.9181,-0.9201,-0.9161,-0.9162,-0.9242,-0.9245,-0.9247,-0.9284,0,0,0,0,0,0,-0.9146,-0.915,-0.9164,-0.9162,-0.9165,-0.9197,-0.9167,-0.9164,-0.917,-0.9167,-0.9166,-0.9165,-0.9155,-0.9179,-0.9183,-0.9202,-0.9163,-0.9241,-0.9243,-0.9246,-0.9281,-0.9287,-0.9293,0,0,0,0,0,-0.9145,-0.9174,-0.9165,-0.9168,-0.9182,-0.9198,-0.92,-0.9189,-0.9172,-0.9185,-0.9181,-0.9165,-0.9198,-0.9182,-0.9186,-0.9206,-0.9239,-0.9243,-0.9246,-0.9279,-0.9286,-0.9293,0,0,0,0,0,0,-0.9179,-0.9174,-0.9163,-0.9193,-0.9197,-0.9193,-0.921,-0.9197,-0.9205,-0.9201,-0.9186,-0.9186,-0.9212,-0.9211,-0.9193,-0.924,-0.9216,-0.922,-0.924,-0.9247,-0.9252,-0.9252,-0.9164,0,0,0,0,0,-0.919,-0.9204,-0.9198,-0.9225,-0.9228,-0.9219,-0.9225,-0.9216,-0.9219,-0.922,-0.9217,-0.922,-0.9231,-0.9239,-0.9249,-0.9281,-0.928,-0.9296,-0.9302,-0.9307,-0.9311,-0.9327,-0.9334,-0.9258,-0.9258,-0.9258,0,0,-0.9212,-0.9212,-0.9221,-0.9232,-0.9234,-0.9248,-0.922,-0.9237,-0.9247,-0.9222,-0.9244,-0.9242,-0.9244,-0.9272,-0.9284,-0.9272,-0.9331,-0.9311,-0.9315,-0.9316,-0.9331,-0.9338,-0.9345,-0.926,-0.926,-0.9259,0,0,-0.9262,-0.9262,-0.9285,-0.9287,-0.9289,-0.9283,-0.9288,-0.9287,-0.9285,-0.9306,-0.9288,-0.93,-0.9319,-0.9321,-0.9325,-0.9374,-0.936,-0.9378,-0.9408,-0.9424,-0.943,-0.9436,-0.9453,-0.946,-0.9382,-0.9382,-0.9382,0,-0.929,-0.9311,-0.9298,-0.9316,-0.9321,-0.9299,-0.9321,-0.9324,-0.9329,-0.9333,-0.9319,-0.9343,-0.9343,-0.9371,-0.9383,-0.9387,-0.9392,-0.9378,-0.9431,-0.9436,-0.9441,-0.9457,-0.9464,-0.9384,-0.9384,-0.9383,-0.9383,0,-0.9346,-0.9361,-0.9378,-0.9384,-0.9391,-0.9411,-0.9401,-0.9409,-0.9399,-0.9394,-0.9416,-0.9415,-0.9424,-0.943,-0.9421,-0.9457,-0.9449,-0.9433,-0.9409,-0.945,-0.9466,-0.9472,-0.9387,-0.9386,-0.9386,-0.9385,0,0,-0.9417,-0.9415,-0.9422,-0.9424,-0.9425,-0.9436,-0.9454,-0.9464,-0.9471,-0.9475,-0.9491,-0.9507,-0.9492,-0.9497,-0.9487,-0.9501,-0.954,-0.9483,-0.9483,-0.9494,-0.958,-0.9592,-0.96,-0.953,-0.9531,-0.9532,-0.958,0,-0.9465,-0.9497,-0.9486,-0.9519,-0.9532,-0.9511,-0.9527,-0.9529,-0.9525,-0.9535,-0.953,-0.9542,-0.9522,-0.9524,-0.9537,-0.9533,-0.9557,-0.9529,-0.9544,-0.9545,-0.9545,-0.9608,-0.9621,-0.9666,-0.9586,-0.9587,-0.9587,0,-0.9526,-0.9533,-0.9567,-0.9565,-0.957,-0.9585,-0.9592,-0.9602,-0.9604,-0.96,-0.9604,-0.9591,-0.9609,-0.9584,-0.9608,-0.9589,-0.9595,-0.9593,-0.9595,-0.9596,-0.9569,-0.9611,-0.968,-0.9687,-0.9597,-0.9596,-0.9595,0,-0.9575,-0.9592,-0.9615,-0.9618,-0.9616,-0.9627,-0.9626,-0.9627,-0.9633,-0.9638,-0.9642,-0.965,-0.9655,-0.9661,-0.965,-0.9633,-0.9676,-0.965,-0.9673,-0.9673,-0.9683,-0.9683,-0.9754,-0.9686,-0.9686,-0.9686,-0.9686,0,-0.963,-0.9652,-0.9637,-0.9651,-0.9675,-0.9661,-0.9684,-0.9681,-0.9682,-0.9695,-0.9677,-0.9689,-0.9674,-0.9685,-0.9676,-0.9697,-0.9699,-0.9696,-0.9694,-0.9698,-0.9699,-0.9702,-0.9699,-0.9688,-0.9687,-0.9687,-0.9686,0,-0.9689,-0.968,-0.9703,-0.9699,-0.9699,-0.9717,-0.9713,-0.9726,-0.972,-0.9736,-0.9739,-0.973,-0.9741,-0.9731,-0.9742,-0.9737,-0.9765,-0.9758,-0.9765,-0.9763,-0.9786,-0.9784,-0.9862,-0.9872,-0.9797,-0.9798,-0.9799,0,-0.9725,-0.9742,-0.9739,-0.9747,-0.9747,-0.976,-0.9765,-0.9752,-0.9759,-0.9761,-0.9774,-0.9784,-0.9791,-0.9811,-0.9805,-0.9814,-0.9807,-0.9833,-0.9808,-0.9812,-0.9807,-0.9807,-0.9808,-0.9839,-0.984,-0.984,-0.9841,0,-0.979,-0.9785,-0.9794,-0.9802,-0.981,-0.9815,-0.9819,-0.9826,-0.9812,-0.9821,-0.9832,-0.9838,-0.985,-0.986,-0.9866,-0.9866,-0.9851,-0.9849,-0.9855,-0.986,-0.9863,-0.9862,-0.9779,-0.9847,-0.9847,-0.9846,-0.9846,-0.9846,-0.9839,-0.9852,-0.9853,-0.9864,-0.9865,-0.9869,-0.9881,-0.9876,-0.9886,-0.9894,-0.9885,-0.99,-0.99,-0.9907,-0.9908,-0.9919,-0.9908,-0.9916,-0.9918,-0.9921,-0.9924,-0.9861,-0.992,-0.992,-0.992,-0.992,-0.992,0,-0.9903,-0.9902,-0.9913,-0.9919,-0.9927,-0.9912,-0.9916,-0.9924,-0.9937,-0.9939,-0.9946,-0.996,-0.9969,-0.9964,-0.9973,-0.9982,-0.9976,-0.9985,-0.9984,-0.9984,-0.9934,-0.9928,-0.999,-0.999,-0.999,-0.999,-0.999,-0.999,-0.9938,-0.996,-0.9954,-0.9976,-0.9975,-0.9989,-0.9992,-0.9996,-0.9997,-1.0013,-1.0021,-1.0017,-1.0016,-1.0024,-1.0032,-1.0031,-1.0035,-1.0046,-1.0042,-0.9995,-0.9988,-0.9981,-0.9976,-1.0047,-1.0047,-1.0092,-1.0092,-1.0093]}]]